| time (UTC) | temp C | wind direction | speed KPH | gust KPH | rain 1hr cm | rain 24hr cm | rain mn cm | humidity % | barometer mb |
| 20260504160210 | 17 | 360 | 0.0 | 0.0 | 0.00 | 0.00 | 0.08 | 49 | |
| 20260504150210 | 17 | 360 | 0.0 | 0.0 | 0.00 | 0.00 | 0.08 | 50 | |
| 20260504140209 | 19 | 90 | 0.0 | 0.0 | 0.00 | 0.00 | 0.08 | 40 | |
| 20260504130215 | 20 | 27 | 0.0 | 0.0 | 0.00 | 0.00 | 0.08 | 41 | |
| 20260504120210 | 19 | 216 | 0.0 | 0.0 | 0.00 | 0.00 | 0.08 | 45 | |
| 20260504110210 | 18 | 326 | 0.0 | 0.0 | 0.00 | 0.00 | 0.08 | 38 | |
| 20260504100212 | 18 | 340 | 0.0 | 0.0 | 0.00 | 0.00 | 0.08 | 40 | |
| 20260504080210 | 17 | 86 | 0.0 | 0.0 | 0.00 | 0.00 | 0.08 | 43 | |
| 20260504070212 | 15 | 89 | 0.0 | 0.0 | 0.00 | 0.00 | 0.08 | 53 | |
| 20260504060212 | 13 | 94 | 0.0 | 0.0 | 0.00 | 0.00 | 0.08 | 64 | |
| 20260504050210 | 10 | 360 | 0.0 | 0.0 | 0.00 | 0.00 | 0.08 | 72 | |
| 20260504043211 | 8 | 360 | 0.0 | 0.0 | 0.00 | 0.00 | 0.08 | 76 | |
| 20260504040211 | 8 | 360 | 0.0 | 0.0 | 0.00 | 0.00 | 0.08 | 77 | |
| 20260504033211 | 8 | 360 | 0.0 | 0.0 | 0.00 | 0.00 | 0.08 | 77 | |
| 20260504030212 | 8 | 360 | 0.0 | 0.0 | 0.00 | 0.00 | 0.08 | 75 | |
| 20260504023211 | 9 | 360 | 0.0 | 0.0 | 0.00 | 0.00 | 0.08 | 72 | |
| 20260504020212 | 10 | 360 | 0.0 | 0.0 | 0.00 | 0.00 | 0.08 | 71 | |
| 20260504013211 | 10 | 360 | 0.0 | 0.0 | 0.00 | 0.00 | 0.08 | 71 | |
| 20260504010211 | 10 | 360 | 0.0 | 0.0 | 0.00 | 0.00 | 0.08 | 70 | |
| 20260504003210 | 11 | 360 | 0.0 | 0.0 | 0.00 | 0.00 | 0.08 | 68 | |
| 20260504000208 | 11 | 360 | 0.0 | 0.0 | 0.00 | 0.00 | 0.08 | 67 | |
| 20260503233209 | 12 | 360 | 0.0 | 0.0 | 0.00 | 0.00 | 0.08 | 64 | |
| 20260503230209 | 12 | 360 | 0.0 | 0.0 | 0.00 | 0.00 | 0.08 | 64 | |
| 20260503223210 | 12 | 360 | 0.0 | 0.0 | 0.00 | 0.00 | 0.08 | 60 | |
| 20260503220212 | 12 | 360 | 0.0 | 0.0 | 0.00 | 0.00 | 0.00 | 60 | |
| 20260503213210 | 12 | 360 | 0.0 | 0.0 | 0.00 | 0.00 | 0.08 | 60 | |
| 20260503210211 | 13 | 360 | 0.0 | 0.0 | 0.00 | 0.00 | 0.08 | 57 | |
| 20260503203209 | 13 | 360 | 0.0 | 0.0 | 0.00 | 0.00 | 0.08 | 55 | |
| 20260503200211 | 13 | 360 | 1.6 | 0.0 | 0.00 | 0.00 | 0.08 | 55 | |
| 20260503193210 | 13 | 360 | 0.0 | 0.0 | 0.00 | 0.00 | 0.08 | 54 | |
| 20260503190210 | 13 | 360 | 1.6 | 0.0 | 0.00 | 0.00 | 0.08 | 54 | |
| 20260503183209 | 15 | 360 | 8.0 | 0.0 | 0.00 | 0.00 | 0.08 | 49 | |
| 20260503180210 | 15 | 360 | 14.5 | 0.0 | 0.00 | 0.00 | 0.08 | 47 | |
| 20260503173209 | 16 | 360 | 17.7 | 0.0 | 0.00 | 0.00 | 0.08 | 44 | |
| 20260503170211 | 18 | 360 | 1.6 | 0.0 | 0.00 | 0.00 | 0.08 | 54 |